Terminal Aerodrome Forecast
Issued by NWS Pueblo, CO

Home | Current Version | Previous Version | Text Only | Print | Product List | Glossary On
Versions: 1 2 3 4 5 6 7 8 9 10 11 12 13 14 15 16 17 18 19 20 21 22 23 24 25 26 27 28 29 30 31 32 33 34 35
000
FTUS45 KPUB 220148 AAA
TAFPUB
TAF AMD
KPUB 220148Z 2202/2224 11008KT P6SM -RA OVC070
     FM220300 VRB06KT P6SM SCT050 BKN080
     FM221700 16009KT P6SM FEW050 SCT090
     FM222200 11010KT P6SM FEW050 SCT120=

USA.gov is the U.S. government's official web portal to all federal, state and local government web resources and services.